Regional Weather Roundup
Issued by NWS

Home | Current Version | Previous Version | Text Only | Print | Product List | Glossary Off
Versions: 1 2 3 4 5 6 7 8 9 10 11 12 13 14 15 16 17 18 19 20 21 22 23 24 25 26 27 28 29 30 31 32 33 34 35 36 37 38 39 40 41 42 43 44 45 46 47 48 49 50

000
ASUS43 KDTX 231810
RWRMI
MICHIGAN HOURLY REGIONAL WEATHER ROUNDUP
NATIONAL WEATHER SERVICE DETROIT/PONTIAC MI
200 PM EDT SAT JUL 23 2016

NOTE: "FAIR" INDICATES FEW OR NO CLOUDS BELOW 12,000 FEET WITH NO
SIGNIFICANT WEATHER AND/OR OBSTRUCTION TO VISIBILITY.

MIZ047>049-052>055-059>063-066>070-074>076-081>083-231900-
SOUTHEAST LOWER MICHIGAN

CITY           SKY/WX    TMP DP  RH WIND       PRES   REMARKS
ADRIAN         SUNNY     92  67  43 SE6       30.00F HX  95
6HR MIN TEMP:  71; 6HR MAX TEMP:  92;

ALMA           SUNNY     90  58  34 CALM      30.00R
ANN ARBOR      SUNNY     93  59  31 CALM      29.99F HX  92
BAD AXE        SUNNY     86  55  34 NE8       30.00F
CARO           SUNNY     91  59  34 N3        29.99S HX  90
DETROIT CITY   MOSUNNY   94  62  34 NE9       29.97F HX  94
6HR MIN TEMP:  75; 6HR MAX TEMP:  94;

DETROIT        MOSUNNY   95  59  30 W8        29.99F HX  94
6HR MIN TEMP:  76; 6HR MAX TEMP:  95;

FLINT          SUNNY     96  56  26 N5        29.99F HX  94
6HR MIN TEMP:  73; 6HR MAX TEMP:  96;

GROSSE ILE     SUNNY     86  70  59 S7        29.98F HX  90
6HR MIN TEMP:  77; 6HR MAX TEMP:  86;

HOWELL         MOSUNNY   90  58  33 NW3       30.00S
6HR MIN TEMP:  72; 6HR MAX TEMP:  91;


CITY           SKY/WX    TMP DP  RH WIND       PRES   REMARKS
JACKSON        SUNNY     89  59  36 CALM      30.01F
6HR MIN TEMP:  70; 6HR MAX TEMP:  90;

LAMBERTVILLE   SUNNY     91  68  46 CALM      30.00F HX  95
6HR MIN TEMP:  75; 6HR MAX TEMP:  91;

LANSING        SUNNY     91  61  36 NE7       30.00F HX  91
6HR MIN TEMP:  71; 6HR MAX TEMP:  91;

LAPEER         FAIR      90  59  34 N6        30.00S
6HR MIN TEMP:  71; 6HR MAX TEMP:  90;

MASON          SUNNY     90  62  39 CALM      30.00S HX  90
MONROE         SUNNY     89  71  54 MISG      29.99F HX  94
6HR MIN TEMP:  74; 6HR MAX TEMP:  89;

MT. CLEMENS    MOSUNNY   90  65  43 E8        29.96F HX  92
6HR MIN TEMP:  75; 6HR MAX TEMP:  91;

PONTIAC        MOSUNNY   91  58  32 NW9       30.00F HX  90
6HR MIN TEMP:  72; 6HR MAX TEMP:  91;

PORT HOPE        N/A     78  65  63 CALM      29.99F
6HR MIN TEMP:  74; 6HR MAX TEMP:  80;

PORT HURON     SUNNY     84  68  58 NE10G16   29.99F
TRI CITIES     MOSUNNY   89  66  46 VRB6      30.00S HX  91
6HR MIN TEMP:  72; 6HR MAX TEMP:  89;

MIDLAND        FAIR      91  59  34 W5        29.99R HX  90
6HR MIN TEMP:  71; 6HR MAX TEMP:  91;

TROY           SUNNY     94  53  24 N7        30.00F HX  91
SAGINAW HB     SUNNY     90  54  29 CALM      29.99S
$$
MIZ043>046-050>051-056>058-064>065-071>073-077>080-231900-
SOUTHWEST LOWER MICHIGAN

CITY           SKY/WX    TMP DP  RH WIND       PRES   REMARKS
BATTLE CREEK   SUNNY     86  70  58 S9        30.01F HX  90
6HR MIN TEMP:  68; 6HR MAX TEMP:  88;

BENTON HARBOR  MOSUNNY   88  73  61 W8        29.99F HX  95
6HR MIN TEMP:  73; 6HR MAX TEMP:  89;

BIG RAPIDS     MOSUNNY   89  58  34 CALM      30.01S
6HR MIN TEMP:  67; 6HR MAX TEMP:  90;

COLDWATER      SUNNY     87  62  43 CALM      30.01F
6HR MIN TEMP:  67; 6HR MAX TEMP:  87;

FREMONT        FAIR      91  58  33 CALM      29.99S
HOLLAND        MOSUNNY   91  72  53 VRB7      30.00F HX  98
6HR MIN TEMP:  69; 6HR MAX TEMP:  91;

GRAND RAPIDS   PTSUNNY   90  63  40 SE5       29.99F HX  91
6HR MIN TEMP:  70; 6HR MAX TEMP:  92;

IONIA          FAIR      90  58  34 NE7       29.99F
6HR MIN TEMP:  67; 6HR MAX TEMP:  90;

KALAMAZOO      SUNNY     90  64  42 VRB5      30.00F HX  91
6HR MIN TEMP:  70; 6HR MAX TEMP:  91;

LUDINGTON      MOSUNNY   89  69  50 W7        29.98S HX  93
6HR MIN TEMP:  69; 6HR MAX TEMP:  89;

MARSHALL       SUNNY     89  63  42 NE5       30.01S HX  90
6HR MIN TEMP:  68; 6HR MAX TEMP:  89;

MOUNT PLEASANT SUNNY     93  59  32 W6        29.99R HX  92
6HR MIN TEMP:  74; 6HR MAX TEMP:  93;

MUSKEGON       PTSUNNY   87  73  62 SW12      29.99S HX  94
6HR MIN TEMP:  68; 6HR MAX TEMP:  90;

SOUTH HAVEN    MOSUNNY   88  73  61 NW5       29.99S HX  95
$$
MIZ016>042-231900-
NORTHERN LOWER MICHIGAN

CITY           SKY/WX    TMP DP  RH WIND       PRES   REMARKS
ALPENA         SUNNY     89  54  30 MISG      29.99S
6HR MIN TEMP:  69; 6HR MAX TEMP:  89;

BEAVER ISLAND  SUNNY     85  56  37 SE5       30.01R
6HR MIN TEMP:  67; 6HR MAX TEMP:  85;

BELLAIRE       SUNNY     89  55  32 CALM      29.99R
6HR MIN TEMP:  66; 6HR MAX TEMP:  89;

CADILLAC       SUNNY     88  55  32 NW6       30.03R
CHARLEVOIX     SUNNY     83  65  54 NW6       30.02S
FRANKFORT      MOSUNNY   85  66  52 W6        29.99S
GAYLORD        MOSUNNY   86  54  33 CALM      30.03R
6HR MIN TEMP:  68; 6HR MAX TEMP:  87;

GRAYLING       MOSUNNY   91  55  29 W7        30.01S
6HR MIN TEMP:  69; 6HR MAX TEMP:  91;

HARBOR SPRINGS MOSUNNY   82  69  63 SW5       29.99R
HOUGHTON LAKE  SUNNY     89  52  28 W6        30.02R
6HR MIN TEMP:  67; 6HR MAX TEMP:  89;

MANISTEE       MOSUNNY   90  61  37 NW7       29.98S HX  90
OSCODA         SUNNY     86  57  37 NE10      29.98S
6HR MIN TEMP:  71; 6HR MAX TEMP:  88;

PELLSTON       MOSUNNY   88  56  33 W6        29.99R
6HR MIN TEMP:  68; 6HR MAX TEMP:  88;

ROGERS CITY    SUNNY     81  58  46 NE3       30.01R
TRAVERSE CITY  MOSUNNY   89  60  37 NE7       29.98R
6HR MIN TEMP:  73; 6HR MAX TEMP:  89;

$$
MIZ007>008-015-231900-
EASTERN UPPER MICHIGAN

CITY           SKY/WX    TMP DP  RH WIND       PRES   REMARKS
KINROSS        SUNNY     84  60  44 W9        29.99R
6HR MIN TEMP:  67; 6HR MAX TEMP:  84;

MACKINAC ISLAN SUNNY     82  56  40 S3        30.00R
6HR MIN TEMP:  69; 6HR MAX TEMP:  82;

NEWBERRY       MOSUNNY   85  61  44 N3        29.99R HAZE
6HR MIN TEMP:  65; 6HR MAX TEMP:  86;

S. S. MARIE    SUNNY     84  62  47 W7        29.97R
6HR MIN TEMP:  67; 6HR MAX TEMP:  84;

MUNISING         N/A     74  65  73 NE6       30.00R
6HR MIN TEMP:  65; 6HR MAX TEMP:  76;

$$
MIZ004>006-011>014-085-231900-
CENTRAL UPPER MICHIGAN

CITY           SKY/WX    TMP DP  RH WIND       PRES   REMARKS
MANISTIQUE     SUNNY     79  65  61 S7        30.01R
6HR MIN TEMP:  68; 6HR MAX TEMP:  81;

ESCANABA       MOSUNNY   81  63  54 S7        30.01R
6HR MIN TEMP:  66; 6HR MAX TEMP:  82;

MENOMINEE      MOSUNNY   83  60  45 E5        30.00F
6HR MIN TEMP:  69; 6HR MAX TEMP:  84;

SAWYER-GWINN   SUNNY     82  61  47 E7        30.03R
$$
MIZ001>003-009>011-084-231900-
WESTERN UPPER MICHIGAN

CITY           SKY/WX    TMP DP  RH WIND       PRES   REMARKS
IRON MOUNTAIN  PTSUNNY   88  51  28 SW6       30.00F
6HR MIN TEMP:  65; 6HR MAX TEMP:  89;

HOUGHTON       MOSUNNY   77  61  57 VRB7      30.03R
6HR MIN TEMP:  69; 6HR MAX TEMP:  77;

COPPER HARBOR    N/A     71  61  70 SE7       29.99R
6HR MIN TEMP:  66; 6HR MAX TEMP:  71;

IRONWOOD       CLOUDY    84  63  48 SE6       29.94F
6HR MIN TEMP:  61; 6HR MAX TEMP:  84;

$$

ABBREVIATIONS USED IN REMARKS
   TC - TEMPERATURE IN CELSIUS
  WCI - WIND CHILL INDEX
   HX - HEAT INDEX
  VSB - VISIBILITY





USA.gov is the U.S. government's official web portal to all federal, state and local government web resources and services.